This demonstration page uses our WeatherBlox Daily Observations layout. Learn more.

Left ArrowRight Arrow

44.8408, -93.29828

Hourly Observations for February 9, 2019

Temp ( °F °C ) Dew Point ( °F °C ) Humidity (%) Winds ( mph kmh ) Pressure ( in mb ) Visibility ( mi km ) Precip ( " mm )
12:53 am 00:53 Mostly Clear -11 -23.9 -16 -26.7 78 78 NW 3 6 30.92 1047 10 16 0.00 0.00
1:53 am 01:53 Partly Cloudy -11 -23.9 -14 -25.6 86 86 W 3 6 30.93 1048 10 16 0.00 0.00
2:53 am 02:53 Partly Cloudy -11 -23.9 -15 -26.1 82 82 Calm 30.93 1047 10 16 0.00 0.00
3:53 am 03:53 Mostly Cloudy -11 -23.9 -14 -25.6 86 86 Calm 30.91 1047 10 16 0.00 0.00
4:53 am 04:53 Partly Cloudy -11 -23.9 -15 -26.1 82 82 E 3 6 30.90 1046 10 16 0.00 0.00
5:53 am 05:53 Partly Cloudy -10 -23.3 -14 -25.6 81 81 E 6 9 30.90 1046 10 16 0.00 0.00
6:53 am 06:53 Mostly Cloudy -10 -23.3 -14 -25.6 81 81 E 8 13 30.89 1046 10 16 0.00 0.00
7:53 am 07:53 Mostly Cloudy -10 -23.3 -15 -26.1 78 78 ESE 9 15 30.91 1047 10 16 0.00 0.00
8:53 am 08:53 Mostly Cloudy -11 -23.9 -15 -26.1 82 82 SE 8 13 30.92 1047 10 16 0.00 0.00
9:53 am 09:53 Cloudy -9 -22.8 -13 -25 82 82 SE 8 13 30.92 1047 10 16 0.00 0.00
10:53 am 10:53 Cloudy -5 -20.6 -11 -23.9 75 75 ESE 10 17 30.90 1046 10 16 0.00 0.00
11:53 am 11:53 Cloudy -2 -18.9 -10 -23.3 68 68 SE 9 15 30.86 1045 10 16 0.00 0.00
12:53 pm 12:53 Cloudy 0 -17.8 -8 -22.2 69 69 ESE 7 11 30.82 1044 10 16 0.00 0.00
1:53 pm 13:53 Cloudy 3 -16.1 -7 -21.7 62 62 ESE 7 11 30.79 1043 10 16 0.00 0.00
2:53 pm 14:53 Cloudy 5 -15 -5 -20.6 63 63 E 12 19 30.74 1041 10 16 0.00 0.00
3:53 pm 15:53 Cloudy 7 -13.9 -4 -20 60 60 E 12 19 30.72 1040 10 16 0.00 0.00
4:53 pm 16:53 Cloudy 8 -13.3 -3 -19.4 60 60 E 12 19 30.69 1039 10 16 0.00 0.00
5:53 pm 17:53 Cloudy 8 -13.3 -3 -19.4 60 60 E 10 17 30.66 1038 10 16 0.00 0.00
6:53 pm 18:53 Mostly Cloudy 7 -13.9 -3 -19.4 63 63 ESE 12 19 30.65 1038 10 16 0.00 0.00
7:53 pm 19:53 Mostly Clear 6 -14.4 -4 -20 63 63 E 10 17 30.66 1038 10 16 0.00 0.00
8:53 pm 20:53 Mostly Clear 6 -14.4 -3 -19.4 66 66 ENE 6 9 30.64 1038 10 16 0.00 0.00
9:53 pm 21:53 Partly Cloudy 5 -15 -3 -19.4 69 69 ENE 5 7 30.64 1038 10 16 0.00 0.00
10:53 pm 22:53 Cloudy 6 -14.4 -2 -18.9 69 69 ENE 5 7 30.63 1037 10 16 0.00 0.00
11:53 pm 23:53 Cloudy 6 -14.4 -1 -18.3 73 73 ENE 6 9 30.60 1036 10 16 0.00 0.00

Powered by AerisWeather